Torna al catalogo

IRIDIUM 33 DEB

AttivoPO
NORAD 34487·DEBRIS·🇺🇸 United States

Lanciato Sep 14, 1997 da Baikonur Cosmodrome

Loading…

Prossimi Passaggi (prossime 24 ore)

TLE

AggiornatoSource: Space-Track

Epoca: Sep 14, 2026, 10:26 UTC

1 34487U 97051GC  26257.43473927  .00000424  00000-0  11876-3 0  9995
2 34487  86.3377 253.6372 0028792 300.8818 214.8087 14.43561492922255

Traccia IRIDIUM 33 DEB in tempo reale con AllMySat

Download on the App Store